This demonstration page uses our WeatherBlox Daily Observations layout. Learn more.

Left ArrowRight Arrow

39.12711, -84.51439

Hourly Observations for May 3, 2016

Temp ( °F °C ) Dew Point ( °F °C ) Humidity (%) Winds ( mph kmh ) Pressure ( in mb ) Visibility ( mi km ) Precip ( " mm )
12:22 am 00:22 Cloudy 57 13.9 53 11.7 87 87 NE 7 11 29.91 1013 10 16 0.00 0.00
12:53 am 00:53 Cloudy 57 13.9 53 11.7 87 87 NE 8 13 29.92 1013 10 16 0.00 0.00
1:53 am 01:53 Partly Cloudy 54 12.2 51 10.6 90 90 NE 5 7 29.92 1013 10 16 0.00 0.00
2:53 am 02:53 Cloudy 55 12.8 52 11.1 90 90 NNE 5 7 29.91 1013 10 16 0.00 0.00
3:05 am 03:05 Cloudy 55 12.8 52 11.1 90 90 NNE 7 11 29.94 1014 10 16 0.00 0.00
3:53 am 03:53 Cloudy 55 12.8 52 11.1 90 90 ENE 5 7 29.90 1013 10 16 0.00 0.00
4:53 am 04:53 Cloudy 54 12.2 51 10.6 90 90 NE 5 7 29.91 1013 10 16 0.00 0.00
5:34 am 05:34 Cloudy 54 12 50 10 88 88 NNE 5 7 29.94 1014 10 16 0.00 0.00
5:53 am 05:53 Cloudy 54 12.2 51 10.6 90 90 NNE 5 7 29.90 1013 10 16 0.00 0.00
6:53 am 06:53 Cloudy 54 12.2 50 10 87 87 NNE 3 6 29.91 1013 10 16 0.00 0.00
7:53 am 07:53 Cloudy 54 12.2 51 10.6 90 90 NE 5 7 29.91 1013 10 16 0.00 0.00
8:53 am 08:53 Cloudy 54 12.2 51 10.6 90 90 ENE 3 6 29.91 1013 10 16 0.00 0.00
9:27 am 09:27 Cloudy 55 12.8 51 10.6 87 87 ENE 3 6 29.94 1014 10 16 0.00 0.00
9:53 am 09:53 Cloudy 55 12.8 51 10.6 87 87 NNE 3 6 29.91 1013 10 16 0.00 0.00
10:53 am 10:53 Cloudy with Haze 56 13.3 50 10 81 81 NNW 3 6 29.92 1013 6 10 0.00 0.00
11:28 am 11:28 Cloudy 57 14 52 11 82 82 Calm 29.91 1013 9 14 0.00 0.00
11:53 am 11:53 Cloudy 57 13.9 51 10.6 81 81 Calm 29.91 1013 9 14 0.00 0.00
12:23 pm 12:23 Cloudy 58 14.4 51 10.6 78 78 Calm 29.91 1013 9 14 0.00 0.00
12:53 pm 12:53 Cloudy with Light Rain 57 13.9 50 10 78 78 NW 3 6 29.91 1013 6 10 0.00 0.03
1:53 pm 13:53 Mostly Cloudy with Light Rain 55 12.8 53 11.7 93 93 N 3 6 29.91 1013 4 6 0.03 0.76
2:24 pm 14:24 Cloudy 57 14 54 12 88 88 NNW 6 9 29.91 1013 9 14 0.00 0.00
2:53 pm 14:53 Cloudy 57 13.9 51 10.6 81 81 N 13 20 29.90 1012 10 16 0.00 0.03
3:53 pm 15:53 Cloudy 58 14.4 50 10 75 75 VRB 6 9 29.89 1012 10 16 0.00 0.00
4:39 pm 16:39 Cloudy 60 15.6 49 9.4 67 67 N 10 17 29.88 1012 10 16 0.00 0.00
4:53 pm 16:53 Cloudy 59 15 49 9.4 69 69 NNE 3 6 29.88 1012 10 16 0.00 0.00
5:53 pm 17:53 Cloudy 59 15 48 8.9 67 67 WNW 6 9 29.88 1012 10 16 0.00 0.00
6:53 pm 18:53 Cloudy 59 15 48 8.9 67 67 NNW 7 11 29.87 1012 10 16 0.00 0.00
7:53 pm 19:53 Cloudy 58 14.4 47 8.3 67 67 W 6 9 29.86 1011 10 16 0.00 0.00
8:53 pm 20:53 Cloudy 55 12.8 51 10.6 87 87 SSW 3 6 29.87 1012 10 16 0.00 0.03
9:53 pm 21:53 Cloudy 54 12.2 52 11.1 93 93 SSW 3 6 29.88 1012 10 16 0.00 0.00
10:53 pm 22:53 Cloudy 54 12.2 52 11.1 93 93 Calm 29.87 1012 10 16 0.00 0.00
11:53 pm 23:53 Mostly Clear 52 11.1 51 10.6 97 97 SSW 5 7 29.85 1011 10 16 0.00 0.00

Powered by AerisWeather